Time,TemperatureF,DewpointF,PressureIn,WindDirection,WindDirectionDegrees,WindSpeedMPH,WindSpeedGustMPH,Humidity,HourlyPrecipIn,Conditions,Clouds,dailyrainin,SoftwareType,DateUTC
2013-06-06 07:25:00,59.1,50.1,29.79,NNW,343,0.0,2.0,72,0.00,,,0.00,Wunderground v.1.15,2013-06-06 11:25:00,
2013-06-06 07:30:00,58.9,50.3,29.79,NNW,343,0.0,2.0,73,0.00,,,0.00,Wunderground v.1.15,2013-06-06 11:30:00,
2013-06-06 07:35:00,58.8,50.5,29.79,NNW,343,0.0,2.0,74,0.00,,,0.00,Wunderground v.1.15,2013-06-06 11:35:00,
2013-06-06 07:40:00,58.7,50.4,29.79,North,5,0.0,2.0,74,0.00,,,0.00,Wunderground v.1.15,2013-06-06 11:40:00,
2013-06-06 07:45:00,58.6,50.7,29.79,NNE,24,0.0,2.0,75,0.00,,,0.00,Wunderground v.1.15,2013-06-06 11:45:00,
2013-06-06 07:50:00,58.5,50.6,29.79,North,351,0.0,2.0,75,0.00,,,0.00,Wunderground v.1.15,2013-06-06 11:50:00,
2013-06-06 07:55:00,58.5,51.0,29.79,ESE,115,0.0,2.0,76,0.00,,,0.00,Wunderground v.1.15,2013-06-06 11:55:00,
2013-06-06 08:00:00,58.6,51.1,29.79,NNE,16,0.0,2.0,76,0.00,,,0.00,Wunderground v.1.15,2013-06-06 12:00:00,
2013-06-06 08:15:00,59.6,51.7,29.79,NE,49,1.0,2.0,75,0.00,,,0.00,Wunderground v.1.15,2013-06-06 12:15:00,
2013-06-06 08:20:00,60.2,51.9,29.79,East,80,1.0,2.0,74,0.00,,,0.00,Wunderground v.1.15,2013-06-06 12:20:00,
2013-06-06 08:30:00,61.2,52.1,29.79,NNW,338,1.0,1.0,72,0.00,,,0.00,Wunderground v.1.15,2013-06-06 12:30:00,
2013-06-06 08:35:00,61.4,52.3,29.79,NW,326,1.0,2.0,72,0.00,,,0.00,Wunderground v.1.15,2013-06-06 12:35:00,
2013-06-06 08:40:00,61.6,52.5,29.79,ESE,109,1.0,1.0,72,0.00,,,0.00,Wunderground v.1.15,2013-06-06 12:40:00,
2013-06-06 08:45:00,62.0,53.2,29.79,North,350,1.0,2.0,73,0.00,,,0.00,Wunderground v.1.15,2013-06-06 12:45:00,
2013-06-06 08:50:00,62.3,52.8,29.80,NNW,342,1.0,4.0,71,0.00,,,0.00,Wunderground v.1.15,2013-06-06 12:50:00,
2013-06-06 08:55:00,62.2,52.7,29.80,ESE,103,1.0,4.0,71,0.00,,,0.00,Wunderground v.1.15,2013-06-06 12:55:00,
2013-06-06 09:00:00,62.2,52.7,29.80,ESE,121,1.0,2.0,71,0.00,,,0.00,Wunderground v.1.15,2013-06-06 13:00:00,
2013-06-06 09:05:00,62.2,52.7,29.80,NW,320,1.0,2.0,71,0.00,,,0.00,Wunderground v.1.15,2013-06-06 13:05:00,
2013-06-06 09:10:00,62.2,52.7,29.80,ENE,65,1.0,2.0,71,0.00,,,0.00,Wunderground v.1.15,2013-06-06 13:10:00,
2013-06-06 09:20:00,62.9,53.4,29.80,ESE,105,1.0,1.0,71,0.00,,,0.00,Wunderground v.1.15,2013-06-06 13:20:00,
2013-06-06 09:25:00,63.6,54.4,29.80,ESE,121,1.0,2.0,72,0.00,,,0.00,Wunderground v.1.15,2013-06-06 13:25:00,
2013-06-06 09:30:00,64.0,55.2,29.80,ENE,67,1.0,1.0,73,0.00,,,0.00,Wunderground v.1.15,2013-06-06 13:30:00,
2013-06-06 09:35:00,64.4,54.4,29.80,NE,40,1.0,4.0,70,0.00,,,0.00,Wunderground v.1.15,2013-06-06 13:35:00,
2013-06-06 09:40:00,64.6,54.6,29.80,NNE,14,1.0,2.0,70,0.00,,,0.00,Wunderground v.1.15,2013-06-06 13:40:00,
2013-06-06 09:45:00,64.3,53.9,29.81,NNE,29,1.0,2.0,69,0.00,,,0.00,Wunderground v.1.15,2013-06-06 13:45:00,
2013-06-06 09:55:00,65.1,55.1,29.80,ENE,62,1.0,4.0,70,0.00,,,0.00,Wunderground v.1.15,2013-06-06 13:55:00,
2013-06-06 10:05:00,66.4,55.5,29.80,WNW,296,2.0,3.0,68,0.00,,,0.00,Wunderground v.1.15,2013-06-06 14:05:00,
2013-06-06 10:10:00,66.7,55.8,29.80,SE,132,2.0,2.0,68,0.00,,,0.00,Wunderground v.1.15,2013-06-06 14:10:00,
2013-06-06 10:15:00,67.0,55.7,29.80,NE,51,1.0,2.0,67,0.00,,,0.00,Wunderground v.1.15,2013-06-06 14:15:00,
2013-06-06 10:20:00,66.8,55.5,29.80,ESE,113,1.0,1.0,67,0.00,,,0.00,Wunderground v.1.15,2013-06-06 14:20:00,
2013-06-06 10:30:00,66.4,55.5,29.80,NNE,14,1.0,1.0,68,0.00,,,0.00,Wunderground v.1.15,2013-06-06 14:30:00,
2013-06-06 10:35:00,66.7,57.4,29.79,NNE,16,1.0,2.0,72,0.00,,,0.00,Wunderground v.1.15,2013-06-06 14:35:00,
2013-06-06 10:40:00,67.0,56.1,29.78,SE,130,0.0,2.0,68,0.00,,,0.00,Wunderground v.1.15,2013-06-06 14:40:00,
2013-06-06 10:45:00,67.4,56.9,29.78,SSE,154,1.0,2.0,69,0.00,,,0.00,Wunderground v.1.15,2013-06-06 14:45:00,
2013-06-06 10:50:00,68.1,56.3,29.78,ESE,105,1.0,1.0,66,0.00,,,0.00,Wunderground v.1.15,2013-06-06 14:50:00,
2013-06-06 11:00:00,68.1,56.7,29.79,West,274,1.0,2.0,67,0.00,,,0.00,Wunderground v.1.15,2013-06-06 15:00:00,
2013-06-06 11:05:00,68.4,57.4,29.79,WNW,301,1.0,2.0,68,0.00,,,0.00,Wunderground v.1.15,2013-06-06 15:05:00,
2013-06-06 11:15:00,69.2,58.6,29.79,ENE,57,2.0,2.0,69,0.00,,,0.00,Wunderground v.1.15,2013-06-06 15:15:00,
2013-06-06 11:20:00,68.7,57.3,29.79,NNW,343,1.0,2.0,67,0.00,,,0.00,Wunderground v.1.15,2013-06-06 15:20:00,
2013-06-06 11:25:00,68.7,56.9,29.80,North,355,1.0,2.0,66,0.00,,,0.00,Wunderground v.1.15,2013-06-06 15:25:00,
2013-06-06 11:35:00,70.0,58.5,29.79,WSW,254,0.0,2.0,67,0.00,,,0.00,Wunderground v.1.15,2013-06-06 15:35:00,
2013-06-06 11:45:00,70.2,59.1,29.79,West,281,2.0,3.0,68,0.00,,,0.00,Wunderground v.1.15,2013-06-06 15:45:00,
2013-06-06 11:50:00,69.8,57.5,29.79,NW,318,2.0,2.0,65,0.00,,,0.00,Wunderground v.1.15,2013-06-06 15:50:00,
2013-06-06 11:55:00,69.3,58.7,29.79,NNE,32,2.0,2.0,69,0.00,,,0.00,Wunderground v.1.15,2013-06-06 15:55:00,
2013-06-06 12:00:00,69.4,58.4,29.79,NW,313,1.0,1.0,68,0.00,,,0.00,Wunderground v.1.15,2013-06-06 16:00:00,
2013-06-06 12:10:00,70.1,59.0,29.79,WNW,286,1.0,1.0,68,0.00,,,0.00,Wunderground v.1.15,2013-06-06 16:10:00,
2013-06-06 12:15:00,70.7,59.2,29.79,ESE,119,1.0,2.0,67,0.00,,,0.00,Wunderground v.1.15,2013-06-06 16:15:00,
2013-06-06 12:25:00,71.4,59.4,29.80,ESE,105,1.0,2.0,66,0.00,,,0.00,Wunderground v.1.15,2013-06-06 16:25:00,
2013-06-06 12:30:00,71.7,60.2,29.80,West,263,1.0,3.0,67,0.00,,,0.00,Wunderground v.1.15,2013-06-06 16:30:00,
2013-06-06 12:35:00,71.6,59.2,29.80,SE,134,2.0,3.0,65,0.00,,,0.00,Wunderground v.1.15,2013-06-06 16:35:00,
2013-06-06 12:40:00,71.9,57.7,29.80,ENE,61,2.0,2.0,61,0.00,,,0.00,Wunderground v.1.15,2013-06-06 16:40:00,
2013-06-06 12:50:00,72.4,59.1,29.79,NE,52,1.0,2.0,63,0.00,,,0.00,Wunderground v.1.15,2013-06-06 16:50:00,
2013-06-06 12:55:00,72.3,61.1,29.79,NW,313,1.0,5.0,68,0.00,,,0.00,Wunderground v.1.15,2013-06-06 16:55:00,
2013-06-06 13:00:00,71.9,59.5,29.79,NW,320,2.0,2.0,65,0.00,,,0.00,Wunderground v.1.15,2013-06-06 17:00:00,
2013-06-06 13:05:00,72.0,60.9,29.79,NNE,24,1.0,2.0,68,0.00,,,0.00,Wunderground v.1.15,2013-06-06 17:05:00,
2013-06-06 13:15:00,72.9,61.3,29.78,East,99,1.0,2.0,67,0.00,,,0.00,Wunderground v.1.15,2013-06-06 17:15:00,
2013-06-06 13:25:00,73.3,60.8,29.79,WNW,301,2.0,2.0,65,0.00,,,0.00,Wunderground v.1.15,2013-06-06 17:25:00,
2013-06-06 13:35:00,74.0,60.2,29.78,NW,305,1.0,5.0,62,0.00,,,0.00,Wunderground v.1.15,2013-06-06 17:35:00,
2013-06-06 13:40:00,73.4,60.0,29.78,NW,308,2.0,4.0,63,0.00,,,0.00,Wunderground v.1.15,2013-06-06 17:40:00,
2013-06-06 13:45:00,73.6,60.2,29.78,SW,218,2.0,4.0,63,0.00,,,0.00,Wunderground v.1.15,2013-06-06 17:45:00,
2013-06-06 13:50:00,73.7,59.9,29.78,WNW,294,2.0,3.0,62,0.00,,,0.00,Wunderground v.1.15,2013-06-06 17:50:00,
2013-06-06 13:55:00,74.2,63.4,29.78,NNW,328,2.0,3.0,69,0.00,,,0.00,Wunderground v.1.15,2013-06-06 17:55:00,
2013-06-06 14:00:00,74.9,61.0,29.78,SE,129,1.0,1.0,62,0.00,,,0.00,Wunderground v.1.15,2013-06-06 18:00:00,
2013-06-06 14:05:00,75.2,60.8,29.78,NNW,329,1.0,2.0,61,0.00,,,0.00,Wunderground v.1.15,2013-06-06 18:05:00,
2013-06-06 14:10:00,75.5,61.6,29.77,ESE,119,1.0,1.0,62,0.00,,,0.00,Wunderground v.1.15,2013-06-06 18:10:00,
2013-06-06 14:15:00,75.8,60.9,29.77,West,279,2.0,3.0,60,0.00,,,0.00,Wunderground v.1.15,2013-06-06 18:15:00,
2013-06-06 14:20:00,75.6,61.2,29.77,NE,35,2.0,2.0,61,0.00,,,0.00,Wunderground v.1.15,2013-06-06 18:20:00,
2013-06-06 14:25:00,75.9,61.0,29.77,ESE,122,3.0,3.0,60,0.00,,,0.00,Wunderground v.1.15,2013-06-06 18:25:00,
2013-06-06 14:30:00,76.2,61.3,29.77,NW,321,2.0,2.0,60,0.00,,,0.00,Wunderground v.1.15,2013-06-06 18:30:00,
2013-06-06 14:35:00,76.5,60.1,29.77,East,88,2.0,2.0,57,0.00,,,0.00,Wunderground v.1.15,2013-06-06 18:35:00,
2013-06-06 14:40:00,76.8,59.9,29.77,NW,314,2.0,3.0,56,0.00,,,0.00,Wunderground v.1.15,2013-06-06 18:40:00,
2013-06-06 14:50:00,76.9,61.5,29.77,NNE,26,2.0,2.0,59,0.00,,,0.00,Wunderground v.1.15,2013-06-06 18:50:00,
2013-06-06 14:55:00,77.1,61.7,29.77,East,101,2.0,2.0,59,0.00,,,0.00,Wunderground v.1.15,2013-06-06 18:55:00,
2013-06-06 15:00:00,77.1,61.7,29.76,NNW,347,2.0,2.0,59,0.00,,,0.00,Wunderground v.1.15,2013-06-06 19:00:00,
2013-06-06 15:05:00,77.2,61.8,29.76,East,101,2.0,2.0,59,0.00,,,0.00,Wunderground v.1.15,2013-06-06 19:05:00,
2013-06-06 15:10:00,77.6,61.7,29.76,NW,307,1.0,1.0,58,0.00,,,0.00,Wunderground v.1.15,2013-06-06 19:10:00,
2013-06-06 15:15:00,77.8,61.8,29.76,SE,142,2.0,2.0,58,0.00,,,0.00,Wunderground v.1.15,2013-06-06 19:15:00,
2013-06-06 15:20:00,77.6,60.7,29.76,WNW,290,2.0,2.0,56,0.00,,,0.00,Wunderground v.1.15,2013-06-06 19:20:00,
2013-06-06 15:25:00,77.6,62.6,29.76,North,349,1.0,3.0,60,0.00,,,0.00,Wunderground v.1.15,2013-06-06 19:25:00,
2013-06-06 15:30:00,77.5,59.5,29.76,ESE,104,2.0,2.0,54,0.00,,,0.00,Wunderground v.1.15,2013-06-06 19:30:00,
2013-06-06 15:35:00,77.6,62.1,29.76,East,79,2.0,2.0,59,0.00,,,0.00,Wunderground v.1.15,2013-06-06 19:35:00,
2013-06-06 15:45:00,78.0,60.0,29.76,East,98,2.0,2.0,54,0.00,,,0.00,Wunderground v.1.15,2013-06-06 19:45:00,
2013-06-06 15:50:00,78.2,62.7,29.76,SSE,148,2.0,2.0,59,0.00,,,0.00,Wunderground v.1.15,2013-06-06 19:50:00,
2013-06-06 16:05:00,78.5,60.5,29.76,SE,130,2.0,2.0,54,0.00,,,0.00,Wunderground v.1.15,2013-06-06 20:05:00,
2013-06-06 16:15:00,78.7,60.7,29.76,NNW,331,1.0,2.0,54,0.00,,,0.00,Wunderground v.1.15,2013-06-06 20:15:00,
2013-06-06 16:20:00,79.1,62.6,29.76,ESE,123,1.0,1.0,57,0.00,,,0.00,Wunderground v.1.15,2013-06-06 20:20:00,
2013-06-06 16:25:00,79.2,62.1,29.76,SSW,213,1.0,2.0,56,0.00,,,0.00,Wunderground v.1.15,2013-06-06 20:25:00,
2013-06-06 16:30:00,79.2,61.6,29.76,SE,125,1.0,2.0,55,0.00,,,0.00,Wunderground v.1.15,2013-06-06 20:30:00,
2013-06-06 16:35:00,79.6,62.5,29.76,NE,49,1.0,2.0,56,0.00,,,0.00,Wunderground v.1.15,2013-06-06 20:35:00,
2013-06-06 16:40:00,79.7,62.6,29.76,ESE,107,1.0,2.0,56,0.00,,,0.00,Wunderground v.1.15,2013-06-06 20:40:00,
2013-06-06 16:45:00,79.6,61.0,29.76,East,85,1.0,2.0,53,0.00,,,0.00,Wunderground v.1.15,2013-06-06 20:45:00,
2013-06-06 16:50:00,79.5,61.4,29.76,East,100,1.0,2.0,54,0.00,,,0.00,Wunderground v.1.15,2013-06-06 20:50:00,
2013-06-06 16:55:00,79.6,61.5,29.76,ESE,107,1.0,2.0,54,0.00,,,0.00,Wunderground v.1.15,2013-06-06 20:55:00,
2013-06-06 17:00:00,79.7,61.1,29.76,WNW,299,1.0,1.0,53,0.00,,,0.00,Wunderground v.1.15,2013-06-06 21:00:00,
2013-06-06 17:10:00,79.8,61.1,29.76,NW,321,1.0,2.0,53,0.00,,,0.00,Wunderground v.1.15,2013-06-06 21:10:00,
2013-06-06 17:15:00,79.9,60.2,29.76,East,90,1.0,3.0,51,0.00,,,0.00,Wunderground v.1.15,2013-06-06 21:15:00,
2013-06-06 17:20:00,79.8,61.7,29.76,ESE,115,1.0,2.0,54,0.00,,,0.00,Wunderground v.1.15,2013-06-06 21:20:00,
2013-06-06 17:25:00,79.8,60.6,29.76,ENE,67,1.0,2.0,52,0.00,,,0.00,Wunderground v.1.15,2013-06-06 21:25:00,
2013-06-06 17:30:00,79.8,60.1,29.75,East,96,1.0,2.0,51,0.00,,,0.00,Wunderground v.1.15,2013-06-06 21:30:00,
2013-06-06 17:40:00,79.9,61.2,29.76,ESE,114,1.0,1.0,53,0.00,,,0.00,Wunderground v.1.15,2013-06-06 21:40:00,
2013-06-06 17:45:00,79.9,60.7,29.76,ESE,114,1.0,2.0,52,0.00,,,0.00,Wunderground v.1.15,2013-06-06 21:45:00,
2013-06-06 17:55:00,79.5,61.9,29.76,ESE,123,2.0,2.0,55,0.00,,,0.00,Wunderground v.1.15,2013-06-06 21:55:00,
2013-06-06 18:00:00,79.5,61.9,29.76,NW,320,1.0,2.0,55,0.00,,,0.00,Wunderground v.1.15,2013-06-06 22:00:00,
2013-06-06 18:05:00,79.8,62.2,29.76,ESE,109,0.0,2.0,55,0.00,,,0.00,Wunderground v.1.15,2013-06-06 22:05:00,
2013-06-06 18:10:00,79.9,62.8,29.76,ESE,109,0.0,2.0,56,0.00,,,0.00,Wunderground v.1.15,2013-06-06 22:10:00,
2013-06-06 18:15:00,79.8,60.6,29.76,NW,311,0.0,2.0,52,0.00,,,0.00,Wunderground v.1.15,2013-06-06 22:15:00,
2013-06-06 18:20:00,79.7,61.6,29.76,ENE,68,1.0,2.0,54,0.00,,,0.00,Wunderground v.1.15,2013-06-06 22:20:00,
2013-06-06 18:25:00,79.8,61.1,29.76,East,91,1.0,2.0,53,0.00,,,0.00,Wunderground v.1.15,2013-06-06 22:25:00,
2013-06-06 18:35:00,79.7,62.6,29.75,ESE,123,1.0,3.0,56,0.00,,,0.00,Wunderground v.1.15,2013-06-06 22:35:00,
2013-06-06 18:45:00,79.6,62.0,29.76,ESE,109,0.0,2.0,55,0.00,,,0.00,Wunderground v.1.15,2013-06-06 22:45:00,
2013-06-06 18:50:00,79.8,59.5,29.76,ESE,109,0.0,2.0,50,0.00,,,0.00,Wunderground v.1.15,2013-06-06 22:50:00,
2013-06-06 18:55:00,80.1,61.4,29.76,ESE,105,0.0,2.0,53,0.00,,,0.00,Wunderground v.1.15,2013-06-06 22:55:00,
2013-06-06 19:00:00,79.9,59.6,29.75,ESE,104,0.0,2.0,50,0.00,,,0.00,Wunderground v.1.15,2013-06-06 23:00:00,
2013-06-06 19:05:00,79.7,61.1,29.75,ESE,104,0.0,2.0,53,0.00,,,0.00,Wunderground v.1.15,2013-06-06 23:05:00,
2013-06-06 19:15:00,78.7,61.2,29.75,ESE,104,0.0,2.0,55,0.00,,,0.00,Wunderground v.1.15,2013-06-06 23:15:00,
2013-06-06 19:20:00,78.4,61.4,29.75,ESE,104,0.0,2.0,56,0.00,,,0.00,Wunderground v.1.15,2013-06-06 23:20:00,
2013-06-06 19:25:00,78.2,61.2,29.75,ESE,104,0.0,2.0,56,0.00,,,0.00,Wunderground v.1.15,2013-06-06 23:25:00,
2013-06-06 19:30:00,78.1,61.1,29.75,ESE,102,0.0,2.0,56,0.00,,,0.00,Wunderground v.1.15,2013-06-06 23:30:00,
2013-06-06 19:35:00,77.7,61.7,29.75,East,101,0.0,2.0,58,0.00,,,0.00,Wunderground v.1.15,2013-06-06 23:35:00,
2013-06-06 19:40:00,77.5,62.5,29.75,East,101,0.0,2.0,60,0.00,,,0.00,Wunderground v.1.15,2013-06-06 23:40:00,
2013-06-06 19:45:00,77.1,62.6,29.75,East,101,0.0,2.0,61,0.00,,,0.00,Wunderground v.1.15,2013-06-06 23:45:00,
2013-06-06 19:55:00,76.0,62.0,29.75,East,101,0.0,2.0,62,0.00,,,0.00,Wunderground v.1.15,2013-06-06 23:55:00,
2013-06-06 20:00:00,75.5,61.1,29.75,East,101,0.0,2.0,61,0.00,,,0.00,Wunderground v.1.15,2013-06-07 00:00:00,
2013-06-06 20:05:00,75.1,62.5,29.75,East,101,0.0,2.0,65,0.00,,,0.00,Wunderground v.1.15,2013-06-07 00:05:00,
2013-06-06 20:10:00,74.8,61.4,29.75,NW,313,0.0,2.0,63,0.00,,,0.00,Wunderground v.1.15,2013-06-07 00:10:00,
2013-06-06 20:15:00,74.3,60.0,29.75,WNW,295,0.0,4.0,61,0.00,,,0.00,Wunderground v.1.15,2013-06-07 00:15:00,
2013-06-06 20:20:00,74.0,58.8,29.75,NW,316,2.0,3.0,59,0.00,,,0.00,Wunderground v.1.15,2013-06-07 00:20:00,
2013-06-06 20:25:00,73.7,59.4,29.76,NNW,332,3.0,3.0,61,0.00,,,0.00,Wunderground v.1.15,2013-06-07 00:25:00,
2013-06-06 20:30:00,73.0,58.8,29.75,WNW,300,3.0,3.0,61,0.00,,,0.00,Wunderground v.1.15,2013-06-07 00:30:00,
2013-06-06 20:35:00,72.4,58.6,29.75,NNW,347,3.0,3.0,62,0.00,,,0.00,Wunderground v.1.15,2013-06-07 00:35:00,
2013-06-06 20:45:00,71.6,57.9,29.76,NW,311,3.0,4.0,62,0.00,,,0.00,Wunderground v.1.15,2013-06-07 00:45:00,
2013-06-06 20:55:00,71.0,57.3,29.76,West,272,3.0,3.0,62,0.00,,,0.00,Wunderground v.1.15,2013-06-07 00:55:00,
2013-06-06 21:00:00,70.6,57.4,29.77,NNW,339,3.0,3.0,63,0.00,,,0.00,Wunderground v.1.15,2013-06-07 01:00:00,
2013-06-06 21:10:00,69.8,56.6,29.77,NW,311,3.0,3.0,63,0.00,,,0.00,Wunderground v.1.15,2013-06-07 01:10:00,
2013-06-06 21:20:00,69.1,56.4,29.77,NNW,331,2.0,3.0,64,0.00,,,0.00,Wunderground v.1.15,2013-06-07 01:20:00,
2013-06-06 21:25:00,68.8,56.1,29.77,NNE,21,2.0,6.0,64,0.00,,,0.00,Wunderground v.1.15,2013-06-07 01:25:00,
2013-06-06 21:30:00,68.5,55.8,29.77,North,360,2.0,2.0,64,0.00,,,0.00,Wunderground v.1.15,2013-06-07 01:30:00,
2013-06-06 21:40:00,68.0,55.8,29.78,NW,322,3.0,3.0,65,0.00,,,0.00,Wunderground v.1.15,2013-06-07 01:40:00,
2013-06-06 21:50:00,67.2,55.5,29.78,NW,325,3.0,4.0,66,0.00,,,0.00,Wunderground v.1.15,2013-06-07 01:50:00,
2013-06-06 22:05:00,66.3,54.6,29.78,NNW,330,3.0,5.0,66,0.00,,,0.00,Wunderground v.1.15,2013-06-07 02:05:00,
2013-06-06 22:10:00,66.1,54.8,29.78,NNW,337,3.0,3.0,67,0.00,,,0.00,Wunderground v.1.15,2013-06-07 02:10:00,
2013-06-06 22:20:00,65.8,54.5,29.79,North,349,2.0,2.0,67,0.00,,,0.00,Wunderground v.1.15,2013-06-07 02:20:00,
2013-06-06 22:35:00,65.3,54.9,29.80,NW,313,3.0,5.0,69,0.00,,,0.00,Wunderground v.1.15,2013-06-07 02:35:00,
2013-06-06 22:40:00,65.1,54.7,29.80,NNW,329,3.0,4.0,69,0.00,,,0.00,Wunderground v.1.15,2013-06-07 02:40:00,
2013-06-06 22:50:00,64.9,54.9,29.80,NW,304,3.0,3.0,70,0.00,,,0.00,Wunderground v.1.15,2013-06-07 02:50:00,
2013-06-06 22:55:00,64.9,55.3,29.80,NNW,334,2.0,3.0,71,0.00,,,0.00,Wunderground v.1.15,2013-06-07 02:55:00,
2013-06-06 23:00:00,64.8,55.2,29.81,NNW,333,3.0,3.0,71,0.00,,,0.00,Wunderground v.1.15,2013-06-07 03:00:00,
2013-06-06 23:05:00,64.8,55.6,29.81,North,10,2.0,3.0,72,0.00,,,0.00,Wunderground v.1.15,2013-06-07 03:05:00,
2013-06-06 23:10:00,64.7,55.5,29.81,NW,321,2.0,2.0,72,0.00,,,0.00,Wunderground v.1.15,2013-06-07 03:10:00,
2013-06-06 23:15:00,64.5,55.3,29.82,NW,320,2.0,2.0,72,0.00,,,0.00,Wunderground v.1.15,2013-06-07 03:15:00,
2013-06-06 23:20:00,64.4,55.6,29.82,NNW,345,2.0,2.0,73,0.00,,,0.00,Wunderground v.1.15,2013-06-07 03:20:00,
2013-06-06 23:25:00,64.3,55.5,29.82,North,355,2.0,3.0,73,0.00,,,0.00,Wunderground v.1.15,2013-06-07 03:25:00,
2013-06-06 23:30:00,64.2,55.7,29.82,NE,51,2.0,2.0,74,0.00,,,0.00,Wunderground v.1.15,2013-06-07 03:30:00,
2013-06-06 23:35:00,64.1,55.6,29.82,NW,310,1.0,2.0,74,0.00,,,0.00,Wunderground v.1.15,2013-06-07 03:35:00,
2013-06-06 23:40:00,63.9,55.4,29.82,WNW,299,2.0,2.0,74,0.00,,,0.00,Wunderground v.1.15,2013-06-07 03:40:00,
2013-06-06 23:45:00,63.7,55.3,29.81,NNW,338,3.0,3.0,74,0.00,,,0.00,Wunderground v.1.15,2013-06-07 03:45:00,
2013-06-06 23:50:00,63.5,55.4,29.81,NW,318,2.0,3.0,75,0.00,,,0.00,Wunderground v.1.15,2013-06-07 03:50:00,
2013-06-06 23:55:00,63.4,55.3,29.81,NNW,331,2.0,3.0,75,0.00,,,0.00,Wunderground v.1.15,2013-06-07 03:55:00,